User: anonymous   Login
Location: Meetinghouse Hill
(42.7686°N, 71.7752°W)
Time: 20:31:59
(UTC-05:00)
Language:

Iridium 34 - Orbit

View from above orbital plane
View from above orbital plane
View from above satellite
View from above satellite

Ground track
Ground track

The orbit data is extracted from the following two-line orbital elements,

1 24969U 97056E   14352.53336899  .00000421  00000-0  14314-3 0   666
2 24969 086.3958 339.8619 0002221 105.7876 254.3565 14.34214126901863
Epoch (UTC): 18 December 2014 12:48:03
Eccentricity: 0.0002221
inclination: 86.3958°
perigee height: 776 km
apogee height: 779 km
right ascension of ascending node: 339.8619°
argument of perigee: 105.7876°
revolutions per day: 14.34214126
mean anomaly at epoch: 254.3565°
orbit number at epoch: 90186

The dashed part of the orbit path shows where the satellite is in the earth's shadow,  

DLR